Time,TemperatureF,DewpointF,PressureIn,WindDirection,WindDirectionDegrees,WindSpeedMPH,WindSpeedGustMPH,Humidity,HourlyPrecipIn,Conditions,Clouds,dailyrainin,SoftwareType,DateUTC
2013-05-25 00:01:00,53.2,52.1,30.24,SE,132,0.0,0.0,96,0.08,,---,0.29,VWS V13.01,2013-05-25 05:01:00,
2013-05-25 00:06:00,53.1,52.0,30.24,SE,132,0.0,0.0,96,0.08,,---,0.01,VWS V13.01,2013-05-25 05:06:00,
2013-05-25 00:11:00,53.1,52.0,30.24,SE,132,0.0,0.0,96,0.08,,---,0.01,VWS V13.01,2013-05-25 05:11:00,
2013-05-25 00:16:00,53.0,51.9,30.23,SE,132,0.0,0.0,96,0.08,,---,0.01,VWS V13.01,2013-05-25 05:16:00,
2013-05-25 00:21:00,53.0,51.9,30.23,SE,132,0.0,0.0,96,0.06,,---,0.01,VWS V13.01,2013-05-25 05:21:00,
2013-05-25 00:26:00,52.9,51.8,30.23,SE,132,0.0,0.0,96,0.06,,---,0.01,VWS V13.01,2013-05-25 05:26:00,
2013-05-25 00:31:00,52.8,51.7,30.24,SE,132,0.0,0.0,96,0.06,,---,0.01,VWS V13.01,2013-05-25 05:31:00,
2013-05-25 00:36:00,52.8,51.7,30.23,ESE,111,0.0,0.0,96,0.02,,---,0.01,VWS V13.01,2013-05-25 05:36:00,
2013-05-25 00:41:00,52.7,51.6,30.23,ESE,111,0.0,0.0,96,0.02,,---,0.01,VWS V13.01,2013-05-25 05:41:00,
2013-05-25 00:46:00,52.6,51.5,30.22,East,99,0.0,2.0,96,0.02,,---,0.01,VWS V13.01,2013-05-25 05:46:00,
2013-05-25 00:51:00,52.6,51.5,30.22,East,99,0.0,1.0,96,0.02,,---,0.01,VWS V13.01,2013-05-25 05:51:00,
2013-05-25 00:56:00,52.6,51.5,30.22,East,99,0.0,1.0,96,0.02,,---,0.01,VWS V13.01,2013-05-25 05:56:00,
2013-05-25 01:01:00,52.5,51.4,30.22,East,99,0.0,1.0,96,0.02,,---,0.01,VWS V13.01,2013-05-25 06:01:00,
2013-05-25 01:06:00,52.5,51.4,30.21,East,99,0.0,0.0,96,0.01,,---,0.01,VWS V13.01,2013-05-25 06:06:00,
2013-05-25 01:11:00,52.5,51.4,30.21,East,99,0.0,0.0,96,0.01,,---,0.01,VWS V13.01,2013-05-25 06:11:00,
2013-05-25 01:16:00,52.6,51.5,30.22,East,99,0.0,0.0,96,0.01,,---,0.01,VWS V13.01,2013-05-25 06:16:00,
2013-05-25 01:21:00,52.6,51.5,30.22,East,99,0.0,1.0,96,0.00,,---,0.01,VWS V13.01,2013-05-25 06:21:00,
2013-05-25 01:26:00,52.6,51.5,30.22,East,99,0.0,1.0,96,0.00,,---,0.01,VWS V13.01,2013-05-25 06:26:00,
2013-05-25 01:31:00,52.6,51.5,30.22,East,99,0.0,1.0,96,0.00,,---,0.01,VWS V13.01,2013-05-25 06:31:00,
2013-05-25 01:36:00,52.6,51.5,30.22,East,99,0.0,0.0,96,0.00,,---,0.01,VWS V13.01,2013-05-25 06:36:00,
2013-05-25 01:41:00,52.6,51.5,30.22,East,99,0.0,0.0,96,0.00,,---,0.01,VWS V13.01,2013-05-25 06:41:00,
2013-05-25 01:46:00,52.6,51.5,30.22,East,99,0.0,0.0,96,0.00,,---,0.01,VWS V13.01,2013-05-25 06:46:00,
2013-05-25 01:51:00,52.5,51.4,30.22,East,99,0.0,0.0,96,0.00,,---,0.01,VWS V13.01,2013-05-25 06:51:00,
2013-05-25 01:56:00,52.5,51.4,30.21,East,99,1.0,2.0,96,0.00,,---,0.01,VWS V13.01,2013-05-25 06:56:00,
2013-05-25 02:01:00,52.4,51.3,30.21,East,99,0.0,2.0,96,0.00,,---,0.01,VWS V13.01,2013-05-25 07:01:00,
2013-05-25 02:06:00,52.4,51.3,30.20,East,98,0.0,2.0,96,0.00,,---,0.01,VWS V13.01,2013-05-25 07:06:00,
2013-05-25 02:11:00,52.3,51.2,30.20,East,98,0.0,2.0,96,0.00,,---,0.01,VWS V13.01,2013-05-25 07:11:00,
2013-05-25 02:16:00,52.3,51.2,30.20,East,98,0.0,2.0,96,0.00,,---,0.01,VWS V13.01,2013-05-25 07:16:00,
2013-05-25 02:21:00,52.3,51.2,30.20,East,101,0.0,0.0,96,0.00,,---,0.01,VWS V13.01,2013-05-25 07:21:00,
2013-05-25 02:26:00,52.2,51.1,30.20,East,101,0.0,1.0,96,0.00,,---,0.01,VWS V13.01,2013-05-25 07:26:00,
2013-05-25 02:31:00,52.2,51.1,30.19,East,101,0.0,1.0,96,0.00,,---,0.01,VWS V13.01,2013-05-25 07:31:00,
2013-05-25 02:36:00,52.1,51.0,30.19,East,101,0.0,0.0,96,0.00,,---,0.01,VWS V13.01,2013-05-25 07:36:00,
2013-05-25 02:41:00,52.1,51.0,30.19,East,101,0.0,0.0,96,0.00,,---,0.01,VWS V13.01,2013-05-25 07:41:00,
2013-05-25 02:46:00,52.1,51.0,30.18,East,101,0.0,2.0,96,0.00,,---,0.01,VWS V13.01,2013-05-25 07:46:00,
2013-05-25 02:51:00,52.0,50.9,30.18,East,101,0.0,0.0,96,0.00,,---,0.01,VWS V13.01,2013-05-25 07:51:00,
2013-05-25 02:56:00,52.0,50.9,30.19,East,101,0.0,2.0,96,0.00,,---,0.01,VWS V13.01,2013-05-25 07:56:00,
2013-05-25 03:01:00,52.0,50.9,30.19,East,99,0.0,3.0,96,0.00,,---,0.01,VWS V13.01,2013-05-25 08:01:00,
2013-05-25 03:06:00,52.0,50.9,30.19,East,99,0.0,1.0,96,0.00,,---,0.01,VWS V13.01,2013-05-25 08:06:00,
2013-05-25 03:11:00,52.0,50.9,30.19,East,99,0.0,1.0,96,0.00,,---,0.01,VWS V13.01,2013-05-25 08:11:00,
2013-05-25 03:16:00,52.1,51.0,30.20,East,99,0.0,1.0,96,0.00,,---,0.01,VWS V13.01,2013-05-25 08:16:00,
2013-05-25 03:21:00,52.1,51.0,30.20,East,99,0.0,0.0,96,0.00,,---,0.01,VWS V13.01,2013-05-25 08:21:00,
2013-05-25 03:26:00,52.1,51.0,30.20,ESE,102,0.0,2.0,96,0.00,,---,0.01,VWS V13.01,2013-05-25 08:26:00,
2013-05-25 03:31:00,52.1,51.0,30.20,East,101,0.0,2.0,96,0.00,,---,0.01,VWS V13.01,2013-05-25 08:31:00,
2013-05-25 03:36:00,52.1,51.0,30.21,East,101,2.0,2.0,96,0.00,,---,0.01,VWS V13.01,2013-05-25 08:36:00,
2013-05-25 03:41:00,52.0,50.9,30.20,East,101,0.0,2.0,96,0.00,,---,0.01,VWS V13.01,2013-05-25 08:41:00,
2013-05-25 03:46:00,52.0,50.9,30.20,East,101,1.0,4.0,96,0.00,,---,0.01,VWS V13.01,2013-05-25 08:46:00,
2013-05-25 03:50:00,52.0,50.9,30.20,East,94,0.0,3.0,96,0.00,,---,0.01,VWS V13.01,2013-05-25 08:50:00,
2013-05-25 03:55:00,52.0,50.9,30.20,East,87,0.0,3.0,96,0.00,,---,0.01,VWS V13.01,2013-05-25 08:55:00,
2013-05-25 04:00:00,51.9,50.8,30.20,East,88,1.0,3.0,96,0.00,,---,0.01,VWS V13.01,2013-05-25 09:00:00,
2013-05-25 04:05:00,51.9,50.8,30.21,East,84,0.0,3.0,96,0.00,,---,0.01,VWS V13.01,2013-05-25 09:05:00,
2013-05-25 04:10:00,51.9,50.8,30.21,East,94,1.0,3.0,96,0.00,,---,0.01,VWS V13.01,2013-05-25 09:10:00,
2013-05-25 04:15:00,51.9,50.8,30.21,ESE,110,2.0,5.0,96,0.00,,---,0.01,VWS V13.01,2013-05-25 09:15:00,
2013-05-25 04:20:00,51.9,50.8,30.20,East,93,2.0,5.0,96,0.00,,---,0.01,VWS V13.01,2013-05-25 09:20:00,
2013-05-25 04:25:00,51.9,50.8,30.20,East,82,0.0,5.0,96,0.00,,---,0.01,VWS V13.01,2013-05-25 09:25:00,
2013-05-25 04:30:00,51.9,50.8,30.21,East,92,2.0,5.0,96,0.00,,---,0.01,VWS V13.01,2013-05-25 09:30:00,
2013-05-25 04:35:00,51.9,50.8,30.21,East,94,0.0,5.0,96,0.00,,---,0.01,VWS V13.01,2013-05-25 09:35:00,
2013-05-25 04:40:00,51.9,50.8,30.21,East,88,0.0,5.0,96,0.00,,---,0.01,VWS V13.01,2013-05-25 09:40:00,
2013-05-25 04:45:00,51.9,50.5,30.21,East,88,0.0,5.0,95,0.00,,---,0.01,VWS V13.01,2013-05-25 09:45:00,
2013-05-25 04:50:00,51.9,50.5,30.22,ESE,102,0.0,3.0,95,0.00,,---,0.01,VWS V13.01,2013-05-25 09:50:00,
2013-05-25 04:55:00,51.9,50.5,30.21,ESE,102,0.0,3.0,95,0.00,,---,0.01,VWS V13.01,2013-05-25 09:55:00,
2013-05-25 05:00:00,51.9,50.5,30.22,East,101,0.0,3.0,95,0.00,,---,0.01,VWS V13.01,2013-05-25 10:00:00,
2013-05-25 05:05:00,51.8,50.4,30.22,East,86,2.0,3.0,95,0.00,,---,0.01,VWS V13.01,2013-05-25 10:05:00,
2013-05-25 05:10:00,51.8,50.4,30.21,ENE,69,0.0,4.0,95,0.00,,---,0.01,VWS V13.01,2013-05-25 10:10:00,
2013-05-25 05:15:00,51.9,50.2,30.21,ESE,107,0.0,4.0,94,0.00,,---,0.01,VWS V13.01,2013-05-25 10:15:00,
2013-05-25 05:20:00,51.9,50.2,30.21,ESE,114,0.0,3.0,94,0.00,,---,0.01,VWS V13.01,2013-05-25 10:20:00,
2013-05-25 05:25:00,51.9,50.2,30.20,East,85,0.0,3.0,94,0.00,,---,0.01,VWS V13.01,2013-05-25 10:25:00,
2013-05-25 05:30:00,51.9,50.2,30.20,East,85,0.0,4.0,94,0.00,,---,0.01,VWS V13.01,2013-05-25 10:30:00,
2013-05-25 05:35:00,51.9,49.9,30.21,East,86,0.0,2.0,93,0.00,,---,0.01,VWS V13.01,2013-05-25 10:35:00,
2013-05-25 05:40:00,51.9,49.9,30.21,East,94,0.0,3.0,93,0.00,,---,0.01,VWS V13.01,2013-05-25 10:40:00,
2013-05-25 05:45:00,51.9,49.9,30.21,ENE,63,0.0,4.0,93,0.00,,---,0.01,VWS V13.01,2013-05-25 10:45:00,
2013-05-25 05:50:00,51.9,49.9,30.21,East,96,0.0,4.0,93,0.00,,---,0.01,VWS V13.01,2013-05-25 10:50:00,
2013-05-25 05:55:00,52.0,50.0,30.20,East,98,0.0,5.0,93,0.00,,---,0.01,VWS V13.01,2013-05-25 10:55:00,
2013-05-25 06:00:00,52.0,49.8,30.20,ENE,78,2.0,5.0,92,0.00,,---,0.01,VWS V13.01,2013-05-25 11:00:00,
2013-05-25 06:05:00,52.0,49.8,30.19,East,94,2.0,5.0,92,0.00,,---,0.01,VWS V13.01,2013-05-25 11:05:00,
2013-05-25 06:10:00,52.0,49.8,30.20,ESE,119,1.0,5.0,92,0.00,,---,0.01,VWS V13.01,2013-05-25 11:10:00,
2013-05-25 06:15:00,52.0,49.5,30.20,East,89,2.0,5.0,91,0.00,,---,0.01,VWS V13.01,2013-05-25 11:15:00,
2013-05-25 06:20:00,52.1,49.6,30.20,East,79,3.0,5.0,91,0.00,,---,0.01,VWS V13.01,2013-05-25 11:20:00,
2013-05-25 06:25:00,52.2,49.7,30.20,ESE,108,2.0,5.0,91,0.00,,---,0.01,VWS V13.01,2013-05-25 11:25:00,
2013-05-25 06:30:00,52.3,49.5,30.21,East,88,2.0,5.0,90,0.00,,---,0.01,VWS V13.01,2013-05-25 11:30:00,
2013-05-25 06:35:00,52.4,49.6,30.21,ENE,78,1.0,5.0,90,0.00,,---,0.01,VWS V13.01,2013-05-25 11:35:00,
2013-05-25 06:40:00,52.5,49.4,30.21,East,86,1.0,5.0,89,0.00,,---,0.01,VWS V13.01,2013-05-25 11:40:00,
2013-05-25 06:45:00,52.7,49.5,30.21,ESE,106,2.0,5.0,89,0.00,,---,0.01,VWS V13.01,2013-05-25 11:45:00,
2013-05-25 06:50:00,52.7,49.2,30.21,ESE,103,0.0,3.0,88,0.00,,---,0.01,VWS V13.01,2013-05-25 11:50:00,
2013-05-25 06:55:00,52.9,49.5,30.22,ENE,69,0.0,4.0,88,0.00,,---,0.01,VWS V13.01,2013-05-25 11:55:00,
2013-05-25 07:00:00,53.0,49.5,30.22,East,86,0.0,4.0,88,0.00,,---,0.01,VWS V13.01,2013-05-25 12:00:00,
2013-05-25 07:05:00,53.0,49.5,30.22,ESE,103,0.0,2.0,88,0.00,,---,0.01,VWS V13.01,2013-05-25 12:05:00,
2013-05-25 07:10:00,53.1,49.3,30.22,East,98,0.0,4.0,87,0.00,,---,0.01,VWS V13.01,2013-05-25 12:10:00,
2013-05-25 07:15:00,53.2,49.4,30.22,ESE,121,0.0,4.0,87,0.00,,---,0.01,VWS V13.01,2013-05-25 12:15:00,
2013-05-25 07:20:00,53.3,49.5,30.22,East,90,3.0,3.0,87,0.00,,---,0.01,VWS V13.01,2013-05-25 12:20:00,
2013-05-25 07:25:00,53.5,49.7,30.21,East,92,1.0,3.0,87,0.00,,---,0.01,VWS V13.01,2013-05-25 12:25:00,
2013-05-25 07:30:00,53.6,49.5,30.21,East,86,1.0,5.0,86,0.00,,---,0.01,VWS V13.01,2013-05-25 12:30:00,
2013-05-25 07:35:00,53.8,49.7,30.21,ESE,110,0.0,5.0,86,0.00,,---,0.01,VWS V13.01,2013-05-25 12:35:00,
2013-05-25 07:40:00,53.9,49.5,30.21,East,87,0.0,5.0,85,0.00,,---,0.01,VWS V13.01,2013-05-25 12:40:00,
2013-05-25 07:45:00,53.9,49.5,30.21,ENE,67,2.0,5.0,85,0.00,,---,0.01,VWS V13.01,2013-05-25 12:45:00,
2013-05-25 07:50:00,54.1,49.7,30.21,ENE,65,3.0,3.0,85,0.00,,---,0.01,VWS V13.01,2013-05-25 12:50:00,
2013-05-25 07:55:00,54.2,49.8,30.21,ESE,119,0.0,5.0,85,0.00,,---,0.01,VWS V13.01,2013-05-25 12:55:00,
2013-05-25 08:00:00,54.4,50.0,30.21,ENE,65,2.0,6.0,85,0.00,,---,0.01,VWS V13.01,2013-05-25 13:00:00,
2013-05-25 08:05:00,54.5,49.8,30.21,East,86,2.0,5.0,84,0.00,,---,0.01,VWS V13.01,2013-05-25 13:05:00,
2013-05-25 08:10:00,54.6,49.9,30.20,ENE,65,5.0,9.0,84,0.00,,---,0.01,VWS V13.01,2013-05-25 13:10:00,
2013-05-25 08:15:00,54.9,49.8,30.20,ESE,113,0.0,9.0,83,0.00,,---,0.01,VWS V13.01,2013-05-25 13:15:00,
2013-05-25 08:20:00,55.1,50.0,30.20,East,88,2.0,4.0,83,0.00,,---,0.01,VWS V13.01,2013-05-25 13:20:00,
2013-05-25 08:25:00,55.4,51.0,30.20,ESE,123,1.0,4.0,85,0.00,,---,0.01,VWS V13.01,2013-05-25 13:25:00,
2013-05-25 08:30:00,55.7,50.3,30.20,ESE,109,3.0,5.0,82,0.00,,---,0.01,VWS V13.01,2013-05-25 13:30:00,
2013-05-25 08:35:00,55.8,50.1,30.21,ENE,67,4.0,7.0,81,0.00,,---,0.01,VWS V13.01,2013-05-25 13:35:00,
2013-05-25 08:40:00,55.9,50.2,30.21,ESE,111,0.0,11.0,81,0.00,,---,0.01,VWS V13.01,2013-05-25 13:40:00,
2013-05-25 08:45:00,55.9,49.8,30.21,East,86,0.0,11.0,80,0.00,,---,0.01,VWS V13.01,2013-05-25 13:45:00,
2013-05-25 08:50:00,55.9,49.8,30.21,ENE,75,1.0,7.0,80,0.00,,---,0.01,VWS V13.01,2013-05-25 13:50:00,
2013-05-25 08:55:00,55.9,49.5,30.22,ENE,60,4.0,9.0,79,0.00,,---,0.01,VWS V13.01,2013-05-25 13:55:00,
2013-05-25 09:00:00,56.0,49.9,30.22,ENE,65,1.0,9.0,80,0.00,,---,0.01,VWS V13.01,2013-05-25 14:00:00,
2013-05-25 09:05:00,56.1,49.7,30.22,ESE,118,4.0,6.0,79,0.00,,---,0.01,VWS V13.01,2013-05-25 14:05:00,
2013-05-25 09:10:00,56.3,50.2,30.22,East,86,3.0,6.0,80,0.00,,---,0.01,VWS V13.01,2013-05-25 14:10:00,
2013-05-25 09:15:00,56.4,49.6,30.22,ENE,78,2.0,6.0,78,0.00,,---,0.01,VWS V13.01,2013-05-25 14:15:00,
2013-05-25 09:20:00,56.4,49.6,30.22,East,101,2.0,7.0,78,0.00,,---,0.01,VWS V13.01,2013-05-25 14:20:00,
2013-05-25 09:25:00,56.6,50.2,30.22,SE,126,0.0,7.0,79,0.00,,---,0.01,VWS V13.01,2013-05-25 14:25:00,
2013-05-25 09:30:00,56.7,49.6,30.22,East,80,0.0,7.0,77,0.00,,---,0.01,VWS V13.01,2013-05-25 14:30:00,
2013-05-25 09:35:00,56.8,49.7,30.22,ESE,123,0.0,4.0,77,0.00,,---,0.01,VWS V13.01,2013-05-25 14:35:00,
2013-05-25 09:40:00,57.0,49.5,30.22,ESE,108,3.0,6.0,76,0.00,,---,0.01,VWS V13.01,2013-05-25 14:40:00,
2013-05-25 09:45:00,57.2,49.7,30.22,East,82,4.0,6.0,76,0.00,,---,0.01,VWS V13.01,2013-05-25 14:45:00,
2013-05-25 09:50:00,57.3,49.8,30.22,South,171,0.0,7.0,76,0.00,,---,0.01,VWS V13.01,2013-05-25 14:50:00,
2013-05-25 09:55:00,57.5,49.7,30.22,SSE,168,0.0,12.0,75,0.00,,---,0.01,VWS V13.01,2013-05-25 14:55:00,
2013-05-25 10:00:00,57.8,50.7,30.22,ESE,110,1.0,12.0,77,0.00,,---,0.01,VWS V13.01,2013-05-25 15:00:00,
2013-05-25 10:05:00,58.4,49.8,30.22,SSE,161,1.0,12.0,73,0.00,,---,0.01,VWS V13.01,2013-05-25 15:05:00,
2013-05-25 10:10:00,59.0,49.6,30.22,SSE,165,2.0,13.0,71,0.00,,---,0.01,VWS V13.01,2013-05-25 15:10:00,
2013-05-25 10:15:00,59.0,48.9,30.22,East,100,2.0,13.0,69,0.00,,---,0.01,VWS V13.01,2013-05-25 15:15:00,
2013-05-25 10:20:00,59.0,48.1,30.22,East,98,0.0,15.0,67,0.00,,---,0.01,VWS V13.01,2013-05-25 15:20:00,
2013-05-25 10:25:00,59.3,49.5,30.22,ESE,118,1.0,15.0,70,0.00,,---,0.01,VWS V13.01,2013-05-25 15:25:00,
2013-05-25 10:30:00,59.4,48.8,30.21,ENE,72,3.0,15.0,68,0.00,,---,0.01,VWS V13.01,2013-05-25 15:30:00,
2013-05-25 10:35:00,59.5,48.9,30.21,ESE,123,2.0,13.0,68,0.00,,---,0.01,VWS V13.01,2013-05-25 15:35:00,
2013-05-25 10:40:00,59.5,48.9,30.21,ESE,102,3.0,13.0,68,0.00,,---,0.01,VWS V13.01,2013-05-25 15:40:00,
2013-05-25 10:45:00,59.7,48.7,30.21,ENE,64,3.0,13.0,67,0.00,,---,0.01,VWS V13.01,2013-05-25 15:45:00,
2013-05-25 10:50:00,59.7,48.7,30.21,ESE,112,0.0,11.0,67,0.00,,---,0.01,VWS V13.01,2013-05-25 15:50:00,
2013-05-25 10:55:00,60.0,49.8,30.21,ESE,123,2.0,11.0,69,0.00,,---,0.01,VWS V13.01,2013-05-25 15:55:00,
2013-05-25 11:00:00,60.4,49.0,30.21,ESE,119,1.0,11.0,66,0.00,,---,0.01,VWS V13.01,2013-05-25 16:00:00,
2013-05-25 11:05:00,60.7,49.7,30.21,SE,141,2.0,11.0,67,0.00,,---,0.01,VWS V13.01,2013-05-25 16:05:00,
2013-05-25 11:10:00,60.8,49.8,30.21,ENE,74,0.0,14.0,67,0.00,,---,0.01,VWS V13.01,2013-05-25 16:10:00,
2013-05-25 11:15:00,60.9,49.5,30.21,South,189,2.0,14.0,66,0.00,,---,0.01,VWS V13.01,2013-05-25 16:15:00,
2013-05-25 11:20:00,60.8,49.4,30.21,SSE,151,7.0,16.0,66,0.00,,---,0.01,VWS V13.01,2013-05-25 16:20:00,
2013-05-25 11:25:00,60.5,49.5,30.21,ESE,106,0.0,16.0,67,0.00,,---,0.01,VWS V13.01,2013-05-25 16:25:00,
2013-05-25 11:30:00,60.4,49.0,30.22,ENE,71,8.0,16.0,66,0.00,,---,0.01,VWS V13.01,2013-05-25 16:30:00,
2013-05-25 11:35:00,60.2,48.8,30.22,SE,133,4.0,16.0,66,0.00,,---,0.01,VWS V13.01,2013-05-25 16:35:00,
2013-05-25 11:40:00,60.1,48.7,30.22,ESE,120,3.0,16.0,66,0.00,,---,0.01,VWS V13.01,2013-05-25 16:40:00,
2013-05-25 11:45:00,60.2,50.0,30.22,South,190,4.0,16.0,69,0.00,,---,0.01,VWS V13.01,2013-05-25 16:45:00,
2013-05-25 11:50:00,60.3,50.1,30.22,SSW,195,11.0,14.0,69,0.00,,---,0.01,VWS V13.01,2013-05-25 16:50:00,
2013-05-25 11:55:00,60.7,50.5,30.22,ESE,107,4.0,14.0,69,0.00,,---,0.01,VWS V13.01,2013-05-25 16:55:00,
2013-05-25 12:00:00,61.1,50.5,30.22,SSE,148,3.0,14.0,68,0.00,,---,0.01,VWS V13.01,2013-05-25 17:00:00,
2013-05-25 12:05:00,61.2,50.6,30.22,East,84,0.0,3.0,68,0.00,,---,0.01,VWS V13.01,2013-05-25 17:05:00,
2013-05-25 12:10:00,61.2,49.8,30.22,East,98,0.0,9.0,66,0.00,,---,0.01,VWS V13.01,2013-05-25 17:10:00,
2013-05-25 12:15:00,61.3,49.9,30.22,SSE,158,4.0,10.0,66,0.00,,---,0.01,VWS V13.01,2013-05-25 17:15:00,
2013-05-25 12:20:00,61.3,49.9,30.22,East,80,1.0,9.0,66,0.00,,---,0.01,VWS V13.01,2013-05-25 17:20:00,
2013-05-25 12:25:00,61.1,50.1,30.22,ENE,75,4.0,9.0,67,0.00,,---,0.01,VWS V13.01,2013-05-25 17:25:00,
2013-05-25 12:30:00,61.4,50.0,30.22,East,88,3.0,16.0,66,0.00,,---,0.01,VWS V13.01,2013-05-25 17:30:00,
2013-05-25 12:35:00,62.0,50.9,30.22,ENE,66,4.0,9.0,67,0.00,,---,0.01,VWS V13.01,2013-05-25 17:35:00,
2013-05-25 12:40:00,62.2,50.7,30.22,ENE,68,7.0,10.0,66,0.00,,---,0.01,VWS V13.01,2013-05-25 17:40:00,
2013-05-25 12:45:00,62.4,50.5,30.22,East,86,6.0,13.0,65,0.00,,---,0.01,VWS V13.01,2013-05-25 17:45:00,
2013-05-25 12:50:00,62.7,50.8,30.22,East,99,1.0,5.0,65,0.00,,---,0.01,VWS V13.01,2013-05-25 17:50:00,
2013-05-25 12:55:00,62.8,51.3,30.21,ENE,63,4.0,7.0,66,0.00,,---,0.01,VWS V13.01,2013-05-25 17:55:00,
2013-05-25 13:00:00,62.7,50.4,30.21,SE,126,0.0,15.0,64,0.00,,---,0.01,VWS V13.01,2013-05-25 18:00:00,
2013-05-25 13:05:00,62.6,50.3,30.21,SE,145,1.0,6.0,64,0.00,,---,0.01,VWS V13.01,2013-05-25 18:05:00,
2013-05-25 13:10:00,62.7,51.2,30.22,ENE,76,4.0,9.0,66,0.00,,---,0.01,VWS V13.01,2013-05-25 18:10:00,
2013-05-25 13:15:00,63.0,50.7,30.22,ENE,75,0.0,14.0,64,0.00,,---,0.01,VWS V13.01,2013-05-25 18:15:00,
2013-05-25 13:20:00,63.3,49.6,30.22,East,91,1.0,12.0,61,0.00,,---,0.01,VWS V13.01,2013-05-25 18:20:00,
2013-05-25 13:25:00,63.7,50.9,30.21,South,186,6.0,13.0,63,0.00,,---,0.01,VWS V13.01,2013-05-25 18:25:00,
2013-05-25 13:30:00,64.4,51.1,30.21,East,84,7.0,13.0,62,0.00,,---,0.01,VWS V13.01,2013-05-25 18:30:00,
2013-05-25 13:35:00,64.6,51.7,30.21,SSE,157,7.0,13.0,63,0.00,,---,0.01,VWS V13.01,2013-05-25 18:35:00,
2013-05-25 13:40:00,64.2,51.4,30.22,SSE,159,3.0,14.0,63,0.00,,---,0.01,VWS V13.01,2013-05-25 18:40:00,
2013-05-25 13:45:00,63.9,50.6,30.22,SSE,165,7.0,15.0,62,0.00,,---,0.01,VWS V13.01,2013-05-25 18:45:00,
2013-05-25 13:50:00,63.6,50.4,30.22,East,101,4.0,7.0,62,0.00,,---,0.01,VWS V13.01,2013-05-25 18:50:00,
2013-05-25 13:55:00,63.5,50.7,30.22,SSE,151,0.0,9.0,63,0.00,,---,0.01,VWS V13.01,2013-05-25 18:55:00,
2013-05-25 14:00:00,63.5,51.1,30.22,East,95,0.0,10.0,64,0.00,,---,0.01,VWS V13.01,2013-05-25 19:00:00,
2013-05-25 14:05:00,63.5,50.3,30.22,South,169,5.0,11.0,62,0.00,,---,0.01,VWS V13.01,2013-05-25 19:05:00,
2013-05-25 14:10:00,63.4,50.6,30.22,ESE,109,0.0,17.0,63,0.00,,---,0.01,VWS V13.01,2013-05-25 19:10:00,
2013-05-25 14:15:00,63.2,50.4,30.22,ENE,65,1.0,17.0,63,0.00,,---,0.01,VWS V13.01,2013-05-25 19:15:00,
2013-05-25 14:20:00,63.0,50.2,30.21,ESE,109,1.0,14.0,63,0.00,,---,0.01,VWS V13.01,2013-05-25 19:20:00,
2013-05-25 14:25:00,63.2,50.8,30.22,SE,144,0.0,14.0,64,0.00,,---,0.01,VWS V13.01,2013-05-25 19:25:00,
2013-05-25 14:30:00,63.1,50.3,30.22,SSE,156,3.0,14.0,63,0.00,,---,0.01,VWS V13.01,2013-05-25 19:30:00,
2013-05-25 14:35:00,62.9,49.7,30.22,East,101,1.0,5.0,62,0.00,,---,0.01,VWS V13.01,2013-05-25 19:35:00,
2013-05-25 14:40:00,62.8,50.0,30.22,ENE,74,3.0,9.0,63,0.00,,---,0.01,VWS V13.01,2013-05-25 19:40:00,
2013-05-25 14:45:00,62.7,48.6,30.22,South,176,7.0,16.0,60,0.00,,---,0.01,VWS V13.01,2013-05-25 19:45:00,
2013-05-25 14:50:00,62.5,49.8,30.23,ESE,109,1.0,7.0,63,0.00,,---,0.01,VWS V13.01,2013-05-25 19:50:00,
2013-05-25 14:55:00,62.5,49.3,30.23,ESE,114,4.0,7.0,62,0.00,,---,0.01,VWS V13.01,2013-05-25 19:55:00,
2013-05-25 15:00:00,62.2,49.0,30.22,East,101,0.0,7.0,62,0.00,,---,0.01,VWS V13.01,2013-05-25 20:00:00,
2013-05-25 15:05:00,62.1,49.8,30.23,SE,128,3.0,11.0,64,0.00,,---,0.01,VWS V13.01,2013-05-25 20:05:00,
2013-05-25 15:10:00,62.1,50.2,30.23,East,90,0.0,11.0,65,0.00,,---,0.01,VWS V13.01,2013-05-25 20:10:00,
2013-05-25 15:15:00,61.9,50.0,30.22,SE,133,4.0,11.0,65,0.00,,---,0.01,VWS V13.01,2013-05-25 20:15:00,
2013-05-25 15:20:00,61.7,49.4,30.22,ESE,109,4.0,5.0,64,0.00,,---,0.01,VWS V13.01,2013-05-25 20:20:00,
2013-05-25 15:25:00,61.4,50.0,30.22,South,184,3.0,6.0,66,0.00,,---,0.01,VWS V13.01,2013-05-25 20:25:00,
2013-05-25 15:30:00,61.4,49.5,30.22,ESE,117,0.0,7.0,65,0.00,,---,0.01,VWS V13.01,2013-05-25 20:30:00,
2013-05-25 15:35:00,61.4,50.0,30.22,ENE,75,2.0,3.0,66,0.00,,---,0.01,VWS V13.01,2013-05-25 20:35:00,
2013-05-25 15:40:00,61.3,49.9,30.22,SE,141,6.0,6.0,66,0.00,,---,0.01,VWS V13.01,2013-05-25 20:40:00,
2013-05-25 15:45:00,61.4,50.4,30.22,SSE,149,0.0,9.0,67,0.00,,---,0.01,VWS V13.01,2013-05-25 20:45:00,
2013-05-25 15:50:00,61.6,51.0,30.22,SSE,159,0.0,5.0,68,0.00,,---,0.01,VWS V13.01,2013-05-25 20:50:00,
2013-05-25 15:55:00,61.7,50.6,30.22,SSE,159,5.0,5.0,67,0.00,,---,0.01,VWS V13.01,2013-05-25 20:55:00,
2013-05-25 16:00:00,61.7,50.6,30.22,East,84,4.0,7.0,67,0.00,,---,0.01,VWS V13.01,2013-05-25 21:00:00,
2013-05-25 16:05:00,61.5,50.5,30.21,East,98,2.0,5.0,67,0.00,,---,0.01,VWS V13.01,2013-05-25 21:05:00,
2013-05-25 16:10:00,61.4,50.0,30.21,East,95,5.0,11.0,66,0.00,,---,0.01,VWS V13.01,2013-05-25 21:10:00,
2013-05-25 16:15:00,61.6,51.0,30.21,East,90,2.0,11.0,68,0.00,,---,0.01,VWS V13.01,2013-05-25 21:15:00,
2013-05-25 16:20:00,61.8,50.7,30.21,South,178,2.0,5.0,67,0.00,,---,0.01,VWS V13.01,2013-05-25 21:20:00,
2013-05-25 16:25:00,61.8,51.1,30.21,East,98,2.0,5.0,68,0.00,,---,0.01,VWS V13.01,2013-05-25 21:25:00,
2013-05-25 16:30:00,61.6,50.1,30.21,ENE,71,2.0,6.0,66,0.00,,---,0.01,VWS V13.01,2013-05-25 21:30:00,
2013-05-25 16:35:00,61.0,50.4,30.21,NE,49,3.0,11.0,68,0.00,,---,0.01,VWS V13.01,2013-05-25 21:35:00,
2013-05-25 16:40:00,60.6,50.0,30.21,ESE,117,1.0,11.0,68,0.00,,---,0.01,VWS V13.01,2013-05-25 21:40:00,
2013-05-25 16:45:00,60.5,49.5,30.21,NE,54,0.0,11.0,67,0.00,,---,0.01,VWS V13.01,2013-05-25 21:45:00,
2013-05-25 16:50:00,60.5,49.1,30.20,South,174,6.0,6.0,66,0.00,,---,0.01,VWS V13.01,2013-05-25 21:50:00,
2013-05-25 16:55:00,60.5,49.1,30.21,ESE,115,1.0,6.0,66,0.00,,---,0.01,VWS V13.01,2013-05-25 21:55:00,
2013-05-25 17:00:00,60.5,48.7,30.21,East,94,5.0,7.0,65,0.00,,---,0.01,VWS V13.01,2013-05-25 22:00:00,
2013-05-25 17:05:00,60.4,49.0,30.21,East,90,2.0,10.0,66,0.00,,---,0.01,VWS V13.01,2013-05-25 22:05:00,
2013-05-25 17:10:00,60.5,49.9,30.20,ENE,75,2.0,11.0,68,0.00,,---,0.01,VWS V13.01,2013-05-25 22:10:00,
2013-05-25 17:15:00,60.4,49.0,30.20,ENE,65,0.0,11.0,66,0.00,,---,0.01,VWS V13.01,2013-05-25 22:15:00,
2013-05-25 17:20:00,60.3,48.9,30.20,SE,145,1.0,10.0,66,0.00,,---,0.01,VWS V13.01,2013-05-25 22:20:00,
2013-05-25 17:25:00,60.2,48.8,30.20,South,180,4.0,15.0,66,0.00,,---,0.01,VWS V13.01,2013-05-25 22:25:00,
2013-05-25 17:30:00,60.3,49.7,30.20,ESE,111,1.0,15.0,68,0.00,,---,0.01,VWS V13.01,2013-05-25 22:30:00,
2013-05-25 17:35:00,60.3,49.3,30.21,ENE,61,3.0,6.0,67,0.00,,---,0.01,VWS V13.01,2013-05-25 22:35:00,
2013-05-25 17:40:00,60.1,49.5,30.20,SSE,153,3.0,13.0,68,0.00,,---,0.01,VWS V13.01,2013-05-25 22:40:00,
2013-05-25 17:45:00,59.9,49.7,30.21,East,85,0.0,13.0,69,0.00,,---,0.01,VWS V13.01,2013-05-25 22:45:00,
2013-05-25 17:50:00,59.8,50.0,30.20,SSE,163,2.0,10.0,70,0.00,,---,0.01,VWS V13.01,2013-05-25 22:50:00,
2013-05-25 17:55:00,59.6,49.0,30.20,ESE,113,3.0,13.0,68,0.00,,---,0.01,VWS V13.01,2013-05-25 22:55:00,
2013-05-25 17:59:00,59.5,49.7,30.21,SE,129,0.0,13.0,70,0.00,,---,0.01,VWS V13.01,2013-05-25 22:59:00,
2013-05-25 18:05:00,59.5,49.3,30.21,ESE,113,0.0,2.0,69,0.00,,---,0.01,VWS V13.01,2013-05-25 23:05:00,
2013-05-25 18:10:00,59.4,49.6,30.20,East,92,0.0,9.0,70,0.00,,---,0.01,VWS V13.01,2013-05-25 23:10:00,
2013-05-25 18:15:00,59.3,49.5,30.20,SSE,156,7.0,9.0,70,0.00,,---,0.01,VWS V13.01,2013-05-25 23:15:00,
2013-05-25 18:20:00,59.2,49.4,30.20,East,100,0.0,12.0,70,0.00,,---,0.01,VWS V13.01,2013-05-25 23:20:00,
2013-05-25 18:25:00,59.1,49.3,30.20,East,86,0.0,12.0,70,0.00,,---,0.01,VWS V13.01,2013-05-25 23:25:00,
2013-05-25 18:30:00,59.0,49.2,30.20,SE,129,2.0,12.0,70,0.00,,---,0.01,VWS V13.01,2013-05-25 23:30:00,
2013-05-25 18:35:00,59.0,49.6,30.20,ESE,103,1.0,3.0,71,0.00,,---,0.01,VWS V13.01,2013-05-25 23:35:00,
2013-05-25 18:40:00,59.0,49.6,30.20,SSE,165,2.0,3.0,71,0.00,,---,0.01,VWS V13.01,2013-05-25 23:40:00,
2013-05-25 18:45:00,59.0,49.6,30.20,SE,142,0.0,7.0,71,0.00,,---,0.01,VWS V13.01,2013-05-25 23:45:00,
2013-05-25 18:50:00,58.9,49.2,30.20,SSE,159,0.0,5.0,70,0.00,,---,0.01,VWS V13.01,2013-05-25 23:50:00,
2013-05-25 18:55:00,58.8,49.4,30.20,ESE,118,0.0,5.0,71,0.00,,---,0.01,VWS V13.01,2013-05-25 23:55:00,
2013-05-25 19:00:00,58.7,49.3,30.20,ESE,102,0.0,5.0,71,0.00,,---,0.01,VWS V13.01,2013-05-26 00:00:00,
2013-05-25 19:05:00,58.7,50.1,30.20,East,96,0.0,2.0,73,0.00,,---,0.01,VWS V13.01,2013-05-26 00:05:00,
2013-05-25 19:10:00,58.6,50.0,30.20,East,87,2.0,10.0,73,0.00,,---,0.01,VWS V13.01,2013-05-26 00:10:00,
2013-05-25 19:15:00,58.4,49.8,30.20,SSE,156,0.0,10.0,73,0.00,,---,0.01,VWS V13.01,2013-05-26 00:15:00,
2013-05-25 19:20:00,58.2,49.6,30.20,SSE,158,6.0,9.0,73,0.00,,---,0.01,VWS V13.01,2013-05-26 00:20:00,
2013-05-25 19:24:00,58.1,49.5,30.20,South,169,0.0,9.0,73,0.00,,---,0.01,VWS V13.01,2013-05-26 00:24:00,
2013-05-25 19:29:00,58.0,49.4,30.21,ESE,122,0.0,10.0,73,0.00,,---,0.01,VWS V13.01,2013-05-26 00:29:00,
2013-05-25 19:34:00,57.9,49.7,30.21,ESE,102,0.0,2.0,74,0.00,,---,0.01,VWS V13.01,2013-05-26 00:34:00,
2013-05-25 19:39:00,57.8,49.6,30.21,SSE,159,0.0,7.0,74,0.00,,---,0.01,VWS V13.01,2013-05-26 00:39:00,
2013-05-25 19:44:00,57.7,49.5,30.21,SSE,154,0.0,7.0,74,0.00,,---,0.01,VWS V13.01,2013-05-26 00:44:00,
2013-05-25 19:49:00,57.6,49.8,30.21,SE,146,0.0,2.0,75,0.00,,---,0.01,VWS V13.01,2013-05-26 00:49:00,
2013-05-25 19:54:00,57.5,49.3,30.21,SSE,168,2.0,6.0,74,0.00,,---,0.01,VWS V13.01,2013-05-26 00:54:00,
2013-05-25 19:59:00,57.4,49.5,30.21,ENE,77,0.0,6.0,75,0.00,,---,0.01,VWS V13.01,2013-05-26 00:59:00,
2013-05-25 20:04:00,57.3,49.1,30.20,SSE,162,0.0,5.0,74,0.00,,---,0.01,VWS V13.01,2013-05-26 01:04:00,
2013-05-25 20:09:00,57.2,49.4,30.20,SE,125,0.0,5.0,75,0.00,,---,0.01,VWS V13.01,2013-05-26 01:09:00,
2013-05-25 20:14:00,57.1,48.9,30.20,SE,132,0.0,6.0,74,0.00,,---,0.01,VWS V13.01,2013-05-26 01:14:00,
2013-05-25 20:19:00,57.1,49.3,30.20,ESE,115,0.0,2.0,75,0.00,,---,0.01,VWS V13.01,2013-05-26 01:19:00,
2013-05-25 20:24:00,57.0,49.2,30.20,South,179,1.0,7.0,75,0.00,,---,0.01,VWS V13.01,2013-05-26 01:24:00,
2013-05-25 20:29:00,56.9,49.1,30.20,SSE,152,0.0,7.0,75,0.00,,---,0.01,VWS V13.01,2013-05-26 01:29:00,
2013-05-25 20:34:00,56.8,49.0,30.20,SE,139,3.0,3.0,75,0.00,,---,0.01,VWS V13.01,2013-05-26 01:34:00,
2013-05-25 20:39:00,56.7,48.9,30.20,East,90,0.0,5.0,75,0.00,,---,0.01,VWS V13.01,2013-05-26 01:39:00,
2013-05-25 20:44:00,56.6,48.8,30.20,SE,128,0.0,5.0,75,0.00,,---,0.01,VWS V13.01,2013-05-26 01:44:00,
2013-05-25 20:49:00,56.6,49.1,30.20,SSE,164,2.0,6.0,76,0.00,,---,0.01,VWS V13.01,2013-05-26 01:49:00,
2013-05-25 20:54:00,56.5,49.0,30.20,SSE,150,0.0,6.0,76,0.00,,---,0.01,VWS V13.01,2013-05-26 01:54:00,
2013-05-25 20:59:00,56.4,48.9,30.20,South,176,0.0,10.0,76,0.00,,---,0.01,VWS V13.01,2013-05-26 01:59:00,
2013-05-25 21:04:00,56.4,49.3,30.20,East,95,0.0,2.0,77,0.00,,---,0.01,VWS V13.01,2013-05-26 02:04:00,
2013-05-25 21:09:00,56.3,49.2,30.21,East,95,1.0,3.0,77,0.00,,---,0.01,VWS V13.01,2013-05-26 02:09:00,
2013-05-25 21:14:00,56.3,49.2,30.21,ESE,106,0.0,3.0,77,0.00,,---,0.01,VWS V13.01,2013-05-26 02:14:00,
2013-05-25 21:19:00,56.2,49.1,30.21,ESE,106,0.0,0.0,77,0.00,,---,0.01,VWS V13.01,2013-05-26 02:19:00,
2013-05-25 21:24:00,56.1,49.3,30.21,South,182,0.0,6.0,78,0.00,,---,0.01,VWS V13.01,2013-05-26 02:24:00,
2013-05-25 21:29:00,56.1,49.3,30.21,South,182,0.0,6.0,78,0.00,,---,0.01,VWS V13.01,2013-05-26 02:29:00,
2013-05-25 21:34:00,56.0,49.6,30.21,South,182,0.0,0.0,79,0.00,,---,0.01,VWS V13.01,2013-05-26 02:34:00,
2013-05-25 21:39:00,55.9,49.2,30.21,South,182,0.0,0.0,78,0.00,,---,0.01,VWS V13.01,2013-05-26 02:39:00,
2013-05-25 21:44:00,55.9,49.2,30.21,South,182,0.0,0.0,78,0.00,,---,0.01,VWS V13.01,2013-05-26 02:44:00,
2013-05-25 21:49:00,55.9,49.5,30.21,South,182,0.0,0.0,79,0.00,,---,0.01,VWS V13.01,2013-05-26 02:49:00,
2013-05-25 21:54:00,55.9,49.5,30.21,South,182,0.0,0.0,79,0.00,,---,0.01,VWS V13.01,2013-05-26 02:54:00,
2013-05-25 21:59:00,55.8,49.4,30.21,SE,145,0.0,0.0,79,0.00,,---,0.01,VWS V13.01,2013-05-26 02:59:00,
2013-05-25 22:04:00,55.8,49.7,30.21,SE,145,0.0,0.0,80,0.00,,---,0.01,VWS V13.01,2013-05-26 03:04:00,
2013-05-25 22:09:00,55.8,49.4,30.21,SE,145,0.0,0.0,79,0.00,,---,0.01,VWS V13.01,2013-05-26 03:09:00,
2013-05-25 22:14:00,55.8,49.4,30.21,SE,145,0.0,1.0,79,0.00,,---,0.01,VWS V13.01,2013-05-26 03:14:00,
2013-05-25 22:19:00,55.9,49.5,30.22,SE,145,0.0,0.0,79,0.00,,---,0.01,VWS V13.01,2013-05-26 03:19:00,
2013-05-25 22:24:00,55.9,49.5,30.22,SE,142,3.0,5.0,79,0.00,,---,0.01,VWS V13.01,2013-05-26 03:24:00,
2013-05-25 22:29:00,55.8,49.4,30.22,SE,139,0.0,5.0,79,0.00,,---,0.01,VWS V13.01,2013-05-26 03:29:00,
2013-05-25 22:34:00,55.9,49.5,30.22,ESE,109,0.0,0.0,79,0.00,,---,0.01,VWS V13.01,2013-05-26 03:34:00,
2013-05-25 22:39:00,55.9,49.5,30.22,SSE,155,0.0,4.0,79,0.00,,---,0.01,VWS V13.01,2013-05-26 03:39:00,
2013-05-25 22:44:00,55.8,49.4,30.21,SSE,150,0.0,4.0,79,0.00,,---,0.01,VWS V13.01,2013-05-26 03:44:00,
2013-05-25 22:49:00,55.8,49.4,30.22,SSE,150,0.0,0.0,79,0.00,,---,0.01,VWS V13.01,2013-05-26 03:49:00,
2013-05-25 22:54:00,55.8,49.0,30.22,East,96,0.0,3.0,78,0.00,,---,0.01,VWS V13.01,2013-05-26 03:54:00,
2013-05-25 22:59:00,55.9,49.2,30.21,East,79,1.0,3.0,78,0.00,,---,0.01,VWS V13.01,2013-05-26 03:59:00,
2013-05-25 23:01:00,55.9,49.2,30.21,East,80,0.0,3.0,78,0.00,,---,0.01,VWS V13.01,2013-05-26 04:01:00,
2013-05-25 23:06:00,55.9,48.8,30.21,East,99,0.0,3.0,77,0.00,,---,0.01,VWS V13.01,2013-05-26 04:06:00,
2013-05-25 23:11:00,55.9,48.8,30.21,East,100,0.0,3.0,77,0.00,,---,0.01,VWS V13.01,2013-05-26 04:11:00,
2013-05-25 23:16:00,55.9,48.8,30.21,East,100,0.0,3.0,77,0.00,,---,0.01,VWS V13.01,2013-05-26 04:16:00,
2013-05-25 23:21:00,55.9,48.8,30.21,East,99,0.0,2.0,77,0.00,,---,0.01,VWS V13.01,2013-05-26 04:21:00,
2013-05-25 23:26:00,55.8,48.7,30.21,SE,136,0.0,7.0,77,0.00,,---,0.01,VWS V13.01,2013-05-26 04:26:00,
2013-05-25 23:31:00,55.9,47.7,30.21,ESE,116,0.0,9.0,74,0.00,,---,0.01,VWS V13.01,2013-05-26 04:31:00,
2013-05-25 23:36:00,56.0,47.8,30.21,East,101,0.0,6.0,74,0.00,,---,0.01,VWS V13.01,2013-05-26 04:36:00,
2013-05-25 23:41:00,56.0,47.5,30.21,East,83,0.0,7.0,73,0.00,,---,0.01,VWS V13.01,2013-05-26 04:41:00,
2013-05-25 23:46:00,56.0,47.5,30.21,SE,141,0.0,7.0,73,0.00,,---,0.01,VWS V13.01,2013-05-26 04:46:00,
2013-05-25 23:51:00,56.0,47.5,30.20,SSE,148,0.0,4.0,73,0.00,,---,0.01,VWS V13.01,2013-05-26 04:51:00,
2013-05-25 23:56:00,55.9,47.4,30.20,ESE,107,0.0,6.0,73,0.00,,---,0.01,VWS V13.01,2013-05-26 04:56:00,